Ely, MN

1:17 PM CDT on May 22, 2018 (GMT -0500)
Ely Municipal

Weather History for KELO - December, 2013

Change the Weather History Date:

Sunday, December 29, 2013

  Actual Average Record
Temperature  
Mean Temperature -17 °F -  
Max Temperature -2 °F 15 °F 35 °F (1999)
Min Temperature -32 °F 0 °F -32 °F (2013)
Degree Days  
Heating Degree Days 82    
Moisture  
Dew Point -22 °F    
Average Humidity 75    
Maximum Humidity 85    
Minimum Humidity 59    
Precipitation  
Precipitation 0.00 in - - ()
Sea Level Pressure  
Sea Level Pressure 30.14 in    
Wind  
Wind Speed 6 mph (NW)    
Max Wind Speed 12 mph    
Max Gust Speed 20 mph    
Visibility 10 miles    
Events      
Averages and records for this station are not official NWS values.
T = Trace of Precipitation, MM = Missing Value Source: NWS Daily Summary

Daily Weather History Graph

Daily Weather History Graph

Search for Another Location

Airport or City:

Astronomy

Dec. 29, 2013 Rise Set
Actual Time 7:56 AM CST 4:22 PM CST
Civil Twilight 7:20 AM CST 4:59 PM CST
Nautical Twilight 6:40 AM CST 5:38 PM CST
Astronomical Twilight 6:03 AM CST 6:16 PM CST
Moon 4:34 AM CST (12/29) 2:06 PM CST (12/29)
Length of Visible Light 9h 38m
Length of Day
8h 26m
Waning Crescent, 11% of the Moon is Illuminated
Dec 29
Waning Crescent
Jan 1
New
Jan 7
First Quarter
Jan 15
Full
Jan 23
Last Quarter

Hourly Weather History & Observations

Time (CST) Temp. Windchill Dew Point Humidity Pressure Visibility Wind Dir Wind Speed Gust Speed Precip Events Conditions
12:13 AM -2.2 °F -18.0 °F -7.6 °F 78% 30.09 in 10.0 mi NNW 9.2 mph 18.4 mph N/A   Overcast
12:33 AM -2.2 °F -16.8 °F -7.6 °F 78% 30.09 in 10.0 mi NNW 8.1 mph 19.6 mph N/A   Overcast
12:52 AM -4.0 °F -21.2 °F -7.6 °F 85% 30.10 in 10.0 mi NNW 10.4 mph 16.1 mph N/A   Overcast
1:13 AM -4.0 °F -14.6 °F -9.4 °F 78% 30.11 in 10.0 mi North 4.6 mph - N/A   Mostly Cloudy
1:33 AM -5.8 °F -18.4 °F -9.4 °F 84% 30.11 in 10.0 mi NNW 5.8 mph - N/A   Mostly Cloudy
1:52 AM -5.8 °F -23.4 °F -9.4 °F 84% 30.12 in 7.0 mi NW 10.4 mph 16.1 mph N/A   Overcast
2:13 AM -5.8 °F -24.4 °F -11.2 °F 77% 30.13 in 10.0 mi NNW 11.5 mph 16.1 mph N/A   Mostly Cloudy
2:32 AM -7.6 °F -20.6 °F -11.2 °F 84% 30.14 in 10.0 mi NNW 5.8 mph - N/A   Scattered Clouds
2:53 AM -9.4 °F -27.9 °F -13.0 °F 84% 30.14 in 10.0 mi North 10.4 mph - N/A   Clear
3:13 AM -9.4 °F -18.6 °F -14.8 °F 77% 30.15 in 10.0 mi North 3.5 mph - N/A   Clear
3:32 AM -9.4 °F -20.9 °F -14.8 °F 77% 30.15 in 10.0 mi North 4.6 mph - N/A   Clear
3:53 AM -11.2 °F -24.8 °F -14.8 °F 84% 30.15 in 10.0 mi NNW 5.8 mph - N/A   Clear
4:13 AM -11.2 °F -27.8 °F -16.6 °F 77% 30.16 in 10.0 mi NNW 8.1 mph - N/A   Clear
4:32 AM -11.2 °F -26.4 °F -16.6 °F 77% 30.15 in 10.0 mi NNW 6.9 mph - N/A   Clear
4:53 AM -13.0 °F -25.1 °F -16.6 °F 84% 30.16 in 10.0 mi NNW 4.6 mph - N/A   Clear
5:13 AM -14.8 °F -30.8 °F -18.4 °F 84% 30.17 in 10.0 mi NNW 6.9 mph - N/A   Clear
5:32 AM -14.8 °F -29.1 °F -18.4 °F 84% 30.18 in 10.0 mi NW 5.8 mph - N/A   Clear
5:53 AM -14.8 °F -30.8 °F -20.2 °F 77% 30.18 in 10.0 mi NNW 6.9 mph - N/A   Clear
6:13 AM -16.6 °F -36.8 °F -20.2 °F 84% 30.19 in 10.0 mi NW 10.4 mph 16.1 mph N/A   Clear
6:31 AM -16.6 °F -31.3 °F -20.2 °F 84% 30.19 in 10.0 mi NW 5.8 mph - N/A   Clear
6:53 AM -18.4 °F -33.4 °F -22.0 °F 84% 30.19 in 10.0 mi NNW 5.8 mph - N/A   Clear
7:13 AM -18.4 °F -31.4 °F -23.8 °F 76% 30.20 in 10.0 mi NW 4.6 mph - N/A   Clear
7:33 AM -18.4 °F -28.9 °F -23.8 °F 76% 30.20 in 10.0 mi NNW 3.5 mph - N/A   Clear
7:53 AM -20.2 °F -35.5 °F -25.6 °F 76% 30.20 in 10.0 mi NW 5.8 mph - N/A   Clear
8:13 AM -20.2 °F -37.3 °F -25.6 °F 76% 30.20 in 10.0 mi NNW 6.9 mph - N/A   Clear
8:33 AM -20.2 °F -38.8 °F -25.6 °F 76% 30.21 in 10.0 mi NW 8.1 mph - N/A   Clear
8:53 AM -20.2 °F -30.9 °F -25.6 °F 76% 30.21 in 10.0 mi NNW 3.5 mph - N/A   Clear
9:13 AM -20.2 °F -35.5 °F -25.6 °F 76% 30.21 in 10.0 mi NW 5.8 mph - N/A   Clear
9:33 AM -20.2 °F -33.5 °F -25.6 °F 76% 30.21 in 10.0 mi NW 4.6 mph - N/A   Clear
9:52 AM -18.4 °F -33.4 °F -23.8 °F 76% 30.21 in 10.0 mi NNW 5.8 mph - N/A   Clear
10:13 AM -16.6 °F - -23.8 °F 70% 30.21 in 10.0 mi Calm Calm - N/A   Clear
10:33 AM -16.6 °F -32.9 °F -23.8 °F 70% 30.21 in 10.0 mi NW 6.9 mph - N/A   Clear
10:52 AM -16.6 °F -34.4 °F -23.8 °F 70% 30.20 in 10.0 mi NNW 8.1 mph - N/A   Clear
11:13 AM -14.8 °F -32.2 °F -23.8 °F 64% 30.20 in 10.0 mi NNW 8.1 mph - N/A   Clear
11:33 AM -14.8 °F -29.1 °F -22.0 °F 70% 30.19 in 10.0 mi WNW 5.8 mph - N/A   Clear
11:52 AM -13.0 °F -28.6 °F -20.2 °F 70% 30.18 in 10.0 mi WNW 6.9 mph - N/A   Clear
12:13 PM -13.0 °F -30.0 °F -20.2 °F 70% 30.18 in 10.0 mi NW 8.1 mph - N/A   Clear
12:33 PM -11.2 °F -27.8 °F -20.2 °F 64% 30.17 in 10.0 mi NW 8.1 mph - N/A   Clear
12:52 PM -11.2 °F -26.4 °F -20.2 °F 64% 30.16 in 10.0 mi NW 6.9 mph - N/A   Clear
1:13 PM -11.2 °F -20.6 °F -20.2 °F 64% 30.15 in 10.0 mi WNW 3.5 mph - N/A   Clear
1:33 PM -11.2 °F -24.8 °F -20.2 °F 64% 30.14 in 10.0 mi West 5.8 mph - N/A   Clear
1:52 PM -11.2 °F -27.8 °F -20.2 °F 64% 30.13 in 10.0 mi West 8.1 mph - N/A   Clear
2:13 PM -11.2 °F -27.8 °F -20.2 °F 64% 30.13 in 10.0 mi NW 8.1 mph - N/A   Clear
2:33 PM -9.4 °F -25.6 °F -20.2 °F 59% 30.13 in 10.0 mi WNW 8.1 mph - N/A   Clear
2:52 PM -11.2 °F -24.8 °F -20.2 °F 64% 30.12 in 10.0 mi WNW 5.8 mph - N/A   Clear
3:13 PM -11.2 °F -26.4 °F -18.4 °F 70% 30.12 in 10.0 mi WNW 6.9 mph - N/A   Clear
3:33 PM -11.2 °F -26.4 °F -18.4 °F 70% 30.12 in 10.0 mi NW 6.9 mph - N/A   Clear
3:53 PM -11.2 °F -26.4 °F -18.4 °F 70% 30.12 in 10.0 mi West 6.9 mph - N/A   Clear
4:12 PM -13.0 °F -27.0 °F -20.2 °F 70% 30.12 in 10.0 mi West 5.8 mph - N/A   Clear
4:33 PM -14.8 °F -29.1 °F -20.2 °F 77% 30.12 in 10.0 mi West 5.8 mph - N/A   Clear
4:53 PM -14.8 °F -27.2 °F -20.2 °F 77% 30.12 in 10.0 mi West 4.6 mph - N/A   Clear
5:12 PM -16.6 °F -26.8 °F -20.2 °F 84% 30.12 in 10.0 mi WSW 3.5 mph - N/A   Clear
5:33 PM -16.6 °F -29.3 °F -22.0 °F 76% 30.11 in 10.0 mi WSW 4.6 mph - N/A   Clear
5:53 PM -18.4 °F -31.4 °F -23.8 °F 76% 30.12 in 10.0 mi WSW 4.6 mph - N/A   Clear
6:13 PM -18.4 °F -28.9 °F -23.8 °F 76% 30.12 in 10.0 mi West 3.5 mph - N/A   Clear
6:33 PM -18.4 °F -28.9 °F -23.8 °F 76% 30.11 in 10.0 mi West 3.5 mph - N/A   Clear
6:53 PM -20.2 °F -30.9 °F -25.6 °F 76% 30.11 in 10.0 mi West 3.5 mph - N/A   Clear
7:13 PM -20.2 °F - -25.6 °F 76% 30.10 in 10.0 mi Calm Calm - N/A   Clear
7:33 PM -23.8 °F - -27.4 °F 83% 30.10 in 10.0 mi Calm Calm - N/A   Clear
7:52 PM -23.8 °F - -27.4 °F 83% 30.11 in 10.0 mi Calm Calm - N/A   Clear
8:13 PM -23.8 °F - -29.2 °F 76% 30.11 in 10.0 mi Calm Calm - N/A   Clear
8:33 PM -27.4 °F - -32.8 °F 75% 30.11 in 10.0 mi Calm Calm - N/A   Clear
8:52 PM -27.4 °F - -32.8 °F 75% 30.10 in 10.0 mi Calm Calm - N/A   Clear
9:13 PM -29.2 °F - -34.6 °F 75% 30.10 in 10.0 mi Calm Calm - N/A   Clear
9:33 PM -29.2 °F - -34.6 °F 75% 30.10 in 10.0 mi Calm Calm - N/A   Clear
9:52 PM -29.2 °F - -34.6 °F 75% 30.11 in 10.0 mi Calm Calm - N/A   Clear
10:13 PM -29.2 °F - -34.6 °F 75% 30.10 in 10.0 mi Calm Calm - N/A   Clear
10:33 PM -29.2 °F -41.2 °F -34.6 °F 75% 30.10 in 10.0 mi SSW 3.5 mph - N/A   Clear
10:52 PM -29.2 °F - -36.4 °F 68% 30.11 in 10.0 mi Calm Calm - N/A   Clear
11:13 PM -31.0 °F - -36.4 °F 75% 30.11 in 10.0 mi Calm Calm - N/A   Clear
11:33 PM -32.8 °F - -38.2 °F 75% 30.11 in 10.0 mi Calm Calm - N/A   Clear
11:52 PM -32.8 °F - -38.2 °F 75% - 10.0 mi Calm Calm - N/A   Clear